This demonstration page uses our WeatherBlox Daily Observations layout. Learn more.

Left ArrowRight Arrow

34.74481, -87.66753

Hourly Observations for October 31, 2021

Temp ( °F °C ) Dew Point ( °F °C ) Humidity (%) Winds ( mph kmh ) Pressure ( in mb ) Visibility ( mi km ) Precip ( " mm )
12:53 am 00:53 Cloudy 57 13.9 51 10.6 81 81 WNW 6 9 29.88 1012 10 16 0.00 0.00
1:53 am 01:53 Cloudy 56 13.3 51 10.6 84 84 NW 3 6 29.89 1012 10 16 0.00 0.00
2:53 am 02:53 Cloudy 55 12.8 51 10.6 87 87 WNW 3 6 29.90 1012 10 16 0.00 0.00
3:53 am 03:53 Cloudy 55 12.8 51 10.6 87 87 W 3 6 29.91 1013 10 16 0.00 0.00
4:53 am 04:53 Cloudy 56 13.3 52 11.1 87 87 WNW 3 6 29.93 1014 10 16 0.00 0.00
5:53 am 05:53 Cloudy 56 13.3 52 11.1 87 87 WSW 3 6 29.96 1014 10 16 0.00 0.00
6:53 am 06:53 Cloudy 56 13.3 52 11.1 87 87 SSW 3 6 29.97 1015 10 16 0.00 0.00
7:53 am 07:53 Sunny 54 12.2 51 10.6 90 90 WSW 3 6 29.99 1016 8 13 0.00 0.00
8:53 am 08:53 Sunny 58 14.4 52 11.1 81 81 W 5 7 30.02 1017 10 16 0.00 0.00
9:53 am 09:53 Sunny 61 16.1 52 11.1 72 72 W 5 7 30.04 1017 10 16 0.00 0.00
10:53 am 10:53 Mostly Sunny 63 17.2 51 10.6 65 65 WNW 7 11 30.06 1018 10 16 0.00 0.00
11:24 am 11:24 Mostly Cloudy 65 18.3 51 10.6 61 61 W 10 17 30.06 1018 10 16 0.00 0.00
11:53 am 11:53 Partly Cloudy 66 18.9 51 10.6 59 59 NW 8 13 30.06 1018 10 16 0.00 0.00
12:53 pm 12:53 Mostly Sunny 67 19.4 49 9.4 53 53 NNW 8 13 30.04 1017 10 16 0.00 0.00
1:53 pm 13:53 Mostly Sunny 67 19.4 49 9.4 53 53 WNW 10 17 30.03 1017 10 16 0.00 0.00
2:53 pm 14:53 Mostly Sunny 68 20 49 9.4 51 51 WNW 9 15 30.03 1017 10 16 0.00 0.00
3:53 pm 15:53 Mostly Sunny 69 20.6 50 10 51 51 NW 7 11 30.04 1017 9 14 0.00 0.00
4:53 pm 16:53 Sunny 68 20 50 10 53 53 WNW 9 15 30.05 1018 10 16 0.00 0.00
5:53 pm 17:53 Sunny 65 18.3 49 9.4 56 56 NW 3 6 30.06 1018 10 16 0.00 0.00
6:53 pm 18:53 Clear 59 15 51 10.6 75 75 NNW 3 6 30.09 1019 10 16 0.00 0.00
7:53 pm 19:53 Clear 60 15.6 50 10 70 70 N 3 6 30.12 1020 10 16 0.00 0.00
8:53 pm 20:53 Clear 55 12.8 49 9.4 80 80 Calm 30.14 1021 10 16 0.00 0.00
9:53 pm 21:53 Clear 53 11.7 48 8.9 83 83 Calm 30.15 1021 10 16 0.00 0.00
10:53 pm 22:53 Clear 52 11.1 48 8.9 86 86 Calm 30.15 1021 9 14 0.00 0.00
11:53 pm 23:53 Clear 51 10.6 47 8.3 86 86 Calm 30.16 1021 10 16 0.00 0.00

Powered by AerisWeather